Dewpoint
62 61 61 60 60 60 59 57 55 51 51 54 55 59 58 60 60 61 60 55 51 50 51 52 54 56 57 58 58 58 58 58 58 58 58 58 58 58
63 61 61 60 61 60 60 59 57 56 52 53 56 58 59 60 60 61 61 55 51 50 49 50 51 53 55 55 56 56 56 57 57 57 57 57 58 58
60 60 59 59 59 59 59 59 58 57 55 55 56 58 58 59 59 59 60 59 58 49 50 48 48 50 51 52 53 53 54 55 55 56 56 57 57 58
58 58 58 58 57 58 59 60 60 59 58 56 57 57 57 58 58 57 59 59 58 52 49 48 48 48 49 49 50 50 52 52 53 53 54 55 56 57
50 50 49 52 57 57 59 59 60 60 60 59 57 57 57 55 55 55 55 57 56 53 47 47 48 48 48 48 49 50 50 50 50 50 50 50 52 53
46 46 46 44 43 43 46 49 54 59 59 59 59 57 55 55 55 56 53 52 55 49 50 49 49 47 47 47 47 48 48 49 49 48 47 47 48 49
41 41 42 42 42 42 43 45 46 49 52 57 57 57 55 53 54 53 56 56 50 48 50 48 49 49 48 45 48 47 47 47 48 48 48 47 46 46
36 36 37 39 39 37 37 37 38 43 45 47 53 55 54 53 53 54 54 48 50 45 48 45 45 47 46 47 46 45 45 45 46 47 48 47 46 45
33 34 34 35 36 32 34 35 36 38 36 44 45 48 54 53 53 53 54 51 53 43 49 47 37 41 38 40 41 42 42 44 45 46 46 45 45 44
32 32 31 31 30 31 32 34 36 38 41 42 45 48 50 54 55 55 55 50 37 37 41 41 34 36 34 35 39 40 41 41 43 44 45 46 44 43
29 29 28 27 28 30 30 32 33 35 38 39 40 41 44 45 48 54 44 43 39 37 36 39 33 33 33 33 34 38 39 41 41 42 42 44 43 42
26 25 26 26 26 27 28 28 27 29 30 32 35 40 41 45 41 50 53 49 39 35 35 40 32 33 33 32 32 33 34 37 39 40 41 42 41 40
23 23 24 25 25 26 26 26 26 28 29 33 36 40 42 43 46 46 51 49 48 40 37 39 33 33 33 30 30 32 33 33 34 36 40 41 41 38
20 21 22 24 24 24 24 25 26 26 28 30 32 34 35 37 39 41 41 46 50 49 39 41 36 36 33 28 29 30 31 32 33 32 33 36 37 37
18 18 19 19 20 21 22 23 24 24 25 25 26 28 31 34 34 35 34 34 34 34 37 41 40 39 40 36 28 28 28 30 32 31 31 32 31 32
14 14 14 16 14 15 18 20 22 23 23 23 23 26 28 30 32 34 33 34 33 33 33 34 35 38 37 35 32 28 29 27 30 30 30 29 30 30
11 11 11 11 11 12 13 16 19 20 21 22 22 23 24 26 27 31 32 32 33 31 30 32 33 33 32 32 31 31 29 28 30 29 29 27 28 29
8 7 7 7 8 9 10 12 15 16 19 21 21 21 21 23 25 26 29 31 32 32 30 30 31 30 29 30 32 30 29 28 28 29 29 26 26 29
5 5 5 5 6 7 8 9 11 15 17 18 19 21 21 21 21 23 25 26 27 28 28 30 31 33 29 26 26 31 28 27 27 27 28 28 26 28
3 3 2 3 4 4 6 7 9 12 14 16 16 18 21 20 20 21 21 23 24 25 24 26 27 28 30 24 23 26 30 27 27 26 25 26 27 29
3 2 2 2 2 3 4 5 7 10 12 14 16 16 17 20 20 20 20 19 22 22 20 21 24 28 28 27 23 24 28 31 30 25 24 23 22 22
3 2 2 1 1 2 3 3 5 7 9 12 15 16 17 18 19 20 20 19 20 21 21 23 25 26 25 22 20 19 21 25 28 29 28 26 22 17
2 3 1 1 0 1 1 1 3 4 7 10 13 15 16 17 19 20 19 19 20 20 20 19 21 22 21 20 18 17 19 20 21 21 25 28 27 26
Lifted_Index
-5 -5 -5 -5 -4 -3 -2 -1 -1 0 1 1 2 2 2 1 1 0 -0 -1 -1 -0 -0 0 1 1 2 2 2 2 3 3 3 3 4 3 3 3
-5 -5 -5 -5 -4 -3 -2 -2 -1 -0 1 1 2 2 1 1 1 0 -1 -1 -1 -1 -0 0 0 1 2 2 2 2 3 3 3 4 4 4 3 3
-5 -5 -5 -5 -4 -3 -2 -2 -1 -0 0 1 1 1 1 0 -0 -0 -1 -1 -1 -1 -0 0 0 1 2 2 2 2 2 3 3 3 4 4 4 4
-4 -4 -4 -4 -4 -3 -2 -1 -1 -0 -0 0 0 1 1 0 -0 -1 -1 -1 -1 -1 -0 -0 0 1 2 2 2 2 2 2 2 3 4 4 4 4
-3 -3 -3 -3 -3 -2 -2 -1 -1 -1 -1 -0 -0 0 0 0 -0 -0 -1 -1 -1 -1 -0 -0 0 1 1 2 2 2 2 2 2 2 3 4 4 4
-2 -2 -2 -2 -2 -2 -2 -1 -1 -1 -1 -0 -0 0 0 0 -0 -0 -0 -0 -1 -1 -0 -0 0 0 1 1 2 2 2 2 2 2 3 3 4 4
-1 -1 -1 -0 -0 -1 -1 -1 -1 -1 -0 0 1 1 1 1 0 0 0 1 0 -0 -0 -0 0 0 1 1 2 2 2 2 2 2 2 3 4 4
2 1 1 2 2 2 1 1 0 0 1 2 2 2 2 2 1 1 1 1 1 1 0 0 0 0 1 1 1 2 2 2 2 2 2 2 3 4
7 5 4 4 5 5 5 4 3 4 4 5 5 5 4 4 3 2 2 2 2 1 1 1 0 0 1 1 1 1 1 2 2 2 1 2 3 3
10 8 7 7 7 7 7 6 6 7 7 7 7 7 6 5 4 3 3 3 2 2 2 1 1 1 1 1 1 1 1 1 1 1 1 1 2 2
10 10 10 9 9 9 8 7 7 8 8 8 8 8 7 6 5 3 3 3 3 2 2 2 2 2 1 1 1 1 1 1 1 1 1 0 1 1
12 12 11 11 11 10 9 7 7 7 8 8 8 7 7 6 5 4 3 3 3 3 2 2 2 2 2 2 1 1 1 1 2 1 1 0 1 1
13 13 14 14 13 12 11 9 8 8 8 7 7 6 6 5 5 4 3 3 3 3 3 2 2 2 2 2 1 1 1 2 2 2 1 1 1 1
14 15 15 15 15 14 13 12 11 9 8 6 6 5 5 5 4 4 3 3 3 3 3 3 3 3 2 2 2 2 1 1 2 1 1 1 1 1
16 16 16 16 16 15 15 14 13 11 9 7 6 6 5 4 4 4 3 3 3 3 4 4 3 3 3 2 2 2 2 1 1 1 1 2 2 2
17 16 16 15 15 15 15 15 15 13 11 9 8 7 6 5 5 4 4 3 3 3 4 4 4 4 4 4 3 2 2 2 2 2 2 3 4 4
17 16 15 15 15 15 15 16 16 15 14 13 12 10 9 8 6 6 5 4 4 4 4 4 5 5 5 5 4 3 2 2 3 3 3 4 6 7
18 17 16 15 15 16 16 16 17 17 17 16 15 14 12 11 9 8 7 6 5 5 5 5 6 5 5 6 6 6 4 4 4 5 5 5 7 10
19 18 18 18 18 18 18 18 19 19 20 19 18 17 16 15 13 12 10 8 7 7 7 8 7 6 6 6 8 9 8 7 7 7 8 9 11 13
20 20 20 20 20 20 20 20 20 21 21 21 20 20 20 19 17 16 15 13 12 11 11 11 11 10 9 9 9 12 13 13 11 11 12 14 16 17
21 21 22 22 21 21 21 21 21 21 21 21 21 21 21 21 20 20 19 18 17 16 15 15 16 16 15 14 12 13 16 18 18 16 16 17 18 18
20 21 21 22 22 21 21 21 20 20 20 20 21 21 21 21 21 21 21 20 20 19 19 19 20 20 19 17 15 15 17 21 22 21 20 19 19 18
20 20 21 21 22 21 21 20 20 19 19 20 20 20 21 20 21 21 21 21 21 21 21 21 21 21 20 18 17 16 18 20 22 22 22 22 21 20